SM4TUV Weather Reports


Display with metric or nautical units.
time (UTC)temp
F
wind
direction
speed
MPH
gust
MPH
rain 1hr
in
rain 24hr
in
rain mn
in
humidity
%
barometer
mb
20260902222432 51 189 5.0 7.0 0.00 0.11 0.00 78 971.6
20260902221531 51 185 4.0 5.0 0.00 0.11 0.00 77 971.7
20260902220631 52 175 5.0 5.0 0.00 0.11 0.00 76 971.8
20260902215731 52 177 6.0 8.0 0.00 0.11 0.11 75 971.7
20260902214831 52 201 5.0 8.0 0.00 0.11 0.11 75 971.6
20260902213933 53 188 5.0 8.0 0.00 0.11 0.11 74 971.7
20260902213032 53 189 5.0 6.0 0.00 0.11 0.11 73 971.8
20260902212132 53 183 4.0 5.0 0.00 0.11 0.11 72 971.8
20260902210331 54 191 4.0 4.0 0.00 0.11 0.11 69 971.9
20260902205432 54 197 5.0 7.0 0.00 0.11 0.11 69 971.8
20260902203631 54 197 5.0 6.0 0.00 0.11 0.11 68 971.7
20260902202732 54 181 4.0 8.0 0.00 0.11 0.11 67 971.9
20260902201831 54 209 4.0 7.0 0.00 0.11 0.11 67 971.8
20260902200932 55 186 4.0 6.0 0.00 0.11 0.11 67 971.9
20260902195131 55 181 4.0 4.0 0.00 0.11 0.11 66 971.9
20260902194231 55 191 3.0 5.0 0.00 0.11 0.11 65 971.8
20260902193331 56 191 5.0 7.0 0.00 0.11 0.11 64 971.9
20260902192432 56 185 4.0 5.0 0.00 0.11 0.11 63 971.9
20260902191532 56 176 3.0 4.0 0.00 0.11 0.11 63 971.7
20260902190631 57 198 2.0 4.0 0.00 0.11 0.11 63 971.8
20260902184832 58 229 4.0 7.0 0.00 0.11 0.11 61 971.8
20260902183931 58 225 5.0 8.0 0.00 0.11 0.11 60 971.8
20260902183031 59 237 5.0 8.0 0.00 0.11 0.11 58 971.8
20260902181232 60 228 6.0 8.0 0.00 0.11 0.11 57 971.9
20260902180332 61 217 5.0 8.0 0.00 0.11 0.11 54 971.6
20260902174531 63 263 6.0 11.0 0.00 0.11 0.11 51 971.6
20260902173631 63 262 6.0 10.0 0.00 0.11 0.11 51 971.7
20260902172732 64 279 6.0 10.0 0.00 0.11 0.11 50 971.7
20260902171832 64 206 7.0 14.0 0.00 0.11 0.11 51 971.6
20260902170931 64 260 9.0 14.0 0.00 0.11 0.11 51 971.6
20260902170032 65 231 8.0 12.0 0.00 0.11 0.11 51 971.6
20260902165132 65 236 7.0 12.0 0.00 0.11 0.11 50 971.5
20260902164231 66 254 7.0 10.0 0.00 0.11 0.11 50 971.5
20260902163332 66 245 8.0 17.0 0.00 0.11 0.11 50 971.6
20260902161531 67 287 8.0 14.0 0.00 0.11 0.11 45 971.5
20260902160632 65 273 9.0 15.0 0.00 0.11 0.11 47 971.5
20260902155731 66 317 8.0 15.0 0.00 0.11 0.11 46 971.4
20260902153931 67 277 8.0 11.0 0.00 0.11 0.11 48 971.3
20260902153032 66 235 7.0 10.0 0.00 0.11 0.11 52 971.4
20260902152131 68 246 7.0 10.0 0.00 0.11 0.11 48 971.4
20260902150332 67 250 7.0 8.0 0.00 0.11 0.11 52 971.3
20260902144531 65 301 8.0 14.0 0.00 0.11 0.11 52 971.6
20260902143632 66 269 7.0 14.0 0.00 0.11 0.11 50 971.4
20260902140931 68 237 8.0 10.0 0.00 0.11 0.11 47 971.4
20260902140031 68 252 9.0 15.0 0.00 0.11 0.11 45 971.4
20260902135132 69 229 11.0 15.0 0.00 0.11 0.11 45 971.2
20260902134232 69 242 12.0 17.0 0.00 0.11 0.11 45 971.4
20260902133332 69 228 11.0 15.0 0.00 0.11 0.11 45 971.4
20260902130631 69 186 14.0 17.0 0.00 0.11 0.11 45 971.5
20260902125731 68 199 12.0 18.0 0.00 0.11 0.11 48 971.4
20260902124831 69 213 10.0 17.0 0.00 0.11 0.11 47 971.4
20260902123932 69 220 11.0 17.0 0.00 0.11 0.11 47 971.4
20260902123033 68 242 11.0 17.0 0.00 0.11 0.11 49 971.6
20260902122132 68 250 14.0 17.0 0.00 0.11 0.11 47 971.7
20260902121232 68 214 8.0 17.0 0.00 0.11 0.11 48 971.4
20260902115432 67 226 10.0 15.0 0.00 0.11 0.11 56 971.9
20260902114532 66 221 6.0 10.0 0.00 0.11 0.11 63 972.0
20260902113632 65 214 7.0 11.0 0.00 0.11 0.11 63 972.1
20260902111832 65 213 7.0 10.0 0.00 0.11 0.11 65 972.3
20260902110931 65 191 10.0 11.0 0.00 0.11 0.11 65 972.4
20260902110031 64 205 10.0 11.0 0.00 0.11 0.11 66 972.3
20260902105132 66 224 9.0 11.0 0.11 0.11 0.11 65 972.4
20260902104231 64 217 7.0 11.0 0.11 0.11 0.11 70 972.6
20260902103332 62 225 4.0 7.0 0.11 0.12 0.11 77 972.6
20260902101532 59 197 3.0 4.0 0.11 0.12 0.11 81 972.8
20260902095732 60 216 3.0 4.0 0.01 0.02 0.01 79 972.7
20260902093933 61 215 3.0 4.0 0.00 0.01 0.00 76 972.6
20260902093032 61 220 3.0 5.0 0.00 0.01 0.00 76 972.8
20260902091232 61 216 3.0 5.0 0.00 0.02 0.00 77 972.8
20260902090331 60 205 4.0 10.0 0.00 0.02 0.00 79 972.8
20260902085432 60 211 5.0 10.0 0.00 0.02 0.00 78 973.0
20260902084532 60 242 4.0 5.0 0.00 0.04 0.00 81 973.0
20260902083631 60 275 3.0 5.0 0.00 0.04 0.00 82 973.1
20260902081831 59 242 4.0 5.0 0.00 0.04 0.00 83 973.0
20260902080932 59 119 4.0 4.0 0.00 0.04 0.00 84 973.1
20260902080031 59 225 2.0 4.0 0.00 0.04 0.00 85 973.1
20260902075132 58 243 3.0 4.0 0.00 0.05 0.00 88 973.2
20260902073331 56 199 3.0 3.0 0.00 0.05 0.00 89 973.1
20260902072433 56 195 2.0 3.0 0.00 0.06 0.00 91 973.1
20260902071531 56 277 1.0 2.0 0.00 0.06 0.00 92 973.3
20260902070632 55 0 0.0 0.0 0.00 0.06 0.00 92 973.2
20260902065733 55 184 0.0 1.0 0.00 0.06 0.00 92 973.2
20260902064832 54 35 1.0 3.0 0.00 0.06 0.00 92 973.2
20260902063933 54 268 1.0 3.0 0.00 0.06 0.00 92 973.2
20260902063032 53 265 2.0 3.0 0.00 0.06 0.00 92 973.3
20260902062132 53 287 3.0 5.0 0.00 0.06 0.00 92 973.4
20260902061232 53 203 2.0 4.0 0.00 0.06 0.00 92 973.4
20260902060332 53 202 2.0 4.0 0.00 0.06 0.00 92 973.4
20260902054532 53 225 3.0 5.0 0.00 0.06 0.00 92 973.4
20260902053632 53 266 2.0 4.0 0.00 0.06 0.00 92 973.3
20260902052732 53 242 2.0 4.0 0.00 0.06 0.00 92 973.4
20260902051832 53 230 3.0 4.0 0.00 0.06 0.00 92 973.4
20260902050933 53 185 3.0 4.0 0.00 0.06 0.00 92 973.3
20260902050032 52 223 2.0 3.0 0.00 0.06 0.00 92 973.5
20260902043332 51 233 3.0 4.0 0.00 0.06 0.00 92 973.5
20260902042433 51 243 3.0 4.0 0.00 0.06 0.00 92 973.4
20260902041532 52 239 5.0 8.0 0.00 0.06 0.00 92 973.4
20260902040632 51 227 5.0 6.0 0.00 0.06 0.00 92 973.3
20260902035732 51 239 2.0 6.0 0.00 0.06 0.00 92 973.6
20260902033933 51 190 2.0 2.0 0.00 0.06 0.00 92 973.5
20260902032132 51 176 3.0 4.0 0.00 0.06 0.00 91 973.4
20260902030332 51 146 3.0 4.0 0.00 0.06 0.00 91 973.5
20260902024532 50 96 2.0 3.0 0.00 0.06 0.00 90 973.4
20260902023632 50 87 2.0 3.0 0.00 0.06 0.00 90 973.6
20260902022733 51 136 2.0 3.0 0.00 0.06 0.00 91 973.5
20260902021832 50 132 2.0 3.0 0.00 0.06 0.00 90 973.6
20260902020932 49 98 2.0 3.0 0.00 0.06 0.00 89 973.5
20260902020033 49 96 1.0 2.0 0.00 0.06 0.00 89 973.6
20260902014232 51 148 3.0 4.0 0.00 0.06 0.00 89 973.7
20260902013332 51 178 3.0 4.0 0.00 0.06 0.00 90 973.8
20260902012433 51 172 3.0 3.0 0.00 0.06 0.00 90 973.8
20260902011532 50 152 2.0 4.0 0.00 0.06 0.00 89 973.8
20260902010632 51 181 4.0 4.0 0.00 0.06 0.00 89 973.9
20260902005732 51 160 3.0 4.0 0.00 0.06 0.00 89 973.9
20260902004832 50 98 1.0 2.0 0.00 0.06 0.00 85 974.0
20260902003032 52 96 0.0 1.0 0.00 0.06 0.00 85 974.0
20260902000332 53 170 2.0 3.0 0.00 0.06 0.00 85 974.1
20260901235432 53 171 3.0 4.0 0.00 0.06 0.00 85 974.1
20260901234532 53 182 3.0 4.0 0.00 0.06 0.00 85 974.2
20260901232733 53 177 2.0 3.0 0.00 0.06 0.00 84 974.2
20260901231832 53 177 3.0 4.0 0.00 0.06 0.00 84 974.3
20260901230932 53 181 3.0 4.0 0.00 0.06 0.00 84 974.3
20260901225132 53 159 2.0 3.0 0.00 0.06 0.00 82 974.3
20260901224232 53 173 2.0 3.0 0.00 0.06 0.00 83 974.4